User: anonymous   Login
Location: Newark
(54.6833°N, 25.2833°E)
Time: 11:31:03
(UTC+00:00)
Language:

S-56A Canister/Altair - Orbit

View from above orbital plane
View from above orbital plane
View from above satellite
View from above satellite

Ground track
Ground track

The orbit data is extracted from the following two-line orbital elements,

1 00082U 61004B   21020.93878662 -.00000089  00000-0 -20772-4 0  9996
2 00082  38.8557 113.0671 1174789  53.2405 317.0465 12.26049045834502
Epoch (UTC): 20 January 2021 22:31:51
Eccentricity: 0.1174789
inclination: 38.8557°
perigee height: 633 km
apogee height: 2499 km
right ascension of ascending node: 113.0671°
argument of perigee: 53.2405°
revolutions per day: 12.26049045
mean anomaly at epoch: 317.0465°
orbit number at epoch: 83450

The dashed part of the orbit path shows where the satellite is in the earth's shadow,  

DLR